Home   Weather   Chiclayo   Past weeks
Flag for Peru

Past Weather in Chiclayo, Lambayeque, Peru — Yesterday and Last 2 Weeks

Now
77 °F

Passing clouds.


Feels Like: 79 °F
Forecast: 71 / 62 °F
Wind: 7 mph from West

Location: Chiclayo Airport

Current Time: Oct 15, 2019 at 12:31:09 pm

Latest Report: Oct 15, 2019 at 12:00 pm


Visibility: N/A

Pressure: 29.95 "Hg

Humidity: 57%

Dew Point: 61 °F

Location of ChiclayoLocation

Past Weather in Chiclayo — Graph

°F

Chiclayo Temperature Yesterday

Maximum temperature yesterday: 73 °F (at 11:00 am)
Minimum temperature yesterday: 63 °F (at 3:00 am)
Average temperature yesterday: 67 °F

High & Low Weather Summary for the Past Weeks

 TemperatureHumidityPressure
High75 °F (Oct 13, 12:00 pm)88% (Oct 1, 12:00 am)30.07 "Hg (Oct 1, 12:00 am)
Low59 °F (Oct 8, 6:00 am)57% (Oct 2, 2:00 pm)29.83 "Hg (Oct 1, 4:00 pm)
Average65 °F77%29.93 "Hg
* Reported Sep 30 11:00 am — Oct 15 11:00 am, Chiclayo. Weather by CustomWeather, © 2019

Note: Actual official high and low records may vary slightly from our data, if they occured in-between our weather recording intervals... More about our weather records

Advertising

Chiclayo Weather History for the Previous 24 Hours

Scroll right to see more
 ConditionsComfort  
Time TempWeatherWind HumidityBarometerVisibility
11:00 am
Tue, Oct 15
73 °FPassing clouds.5 mph61%29.98 "HgN/A
10:00 am70 °FPassing clouds.2 mph69%30.01 "HgN/A
9:00 am66 °FScattered clouds.1 mph78%30.01 "HgN/A
8:00 am64 °FScattered clouds.2 mph83%29.98 "HgN/A
7:00 am63 °FMore clouds than sun.5 mph83%29.98 "HgN/A
6:00 am63 °FMostly cloudy.7 mph83%29.95 "HgN/A
5:00 am63 °FPassing clouds.8 mph83%29.95 "HgN/A
4:00 am63 °FPassing clouds.10 mph83%29.95 "HgN/A
3:00 am63 °FClear.13 mph83%29.95 "Hg10 mi
2:00 am63 °FPassing clouds.13 mph83%29.95 "HgN/A
1:00 am63 °FPartly cloudy.15 mph83%29.95 "HgN/A
12:00 am64 °FMostly cloudy.17 mph83%29.98 "HgN/A
11:00 pm
Mon, Oct 14
64 °FMostly cloudy.16 mph83%29.98 "HgN/A
10:00 pm64 °FMostly cloudy.17 mph83%29.98 "HgN/A
9:00 pm64 °FOvercast.18 mph83%29.95 "HgN/A
8:00 pm64 °FClear.17 mph83%29.92 "Hg10 mi
7:00 pm64 °FPassing clouds.15 mph78%29.89 "HgN/A
6:00 pm66 °FPartly sunny.14 mph73%29.89 "HgN/A
5:00 pm68 °FPartly sunny.16 mph69%29.86 "HgN/A
4:00 pm70 °FScattered clouds.17 mph64%29.86 "HgN/A
3:00 pm72 °FSunny.17 mph65%29.86 "Hg10 mi
2:00 pm73 °FSunny.18 mph57%29.89 "Hg10 mi
1:00 pm73 °FPassing clouds.18 mph57%29.92 "HgN/A
12:00 pm73 °FPassing clouds.15 mph61%29.95 "HgN/A
Weather by CustomWeather, © 2019

See weather overview